CZ-6A DEB, 61278

Orbit data source: Space-Track

CZ-6A DEB, 61278 is space debris in LEO originally from a launch on Tue, 06 Aug 2024 UTC launched from the Taiyaun Space Center, China (TSC). Debris objects in space refer to the collection of defunct objects orbiting the Earth. Examples of debris include non-operational satellites, rocket bodies, and fragments generated from explosions, collisions, or faulty payload assembly.

Loading next visibility...
Identifier
61278, 2024-140SP
Orbit
LEO
Country
Flag of CNCN / PRC
Related business
Manufacturer
SAST
Mission
Spacecraft
Bus & Motor
Unknown
Mass
Unknown
Launch date (UTC)
2024-08-06 (2 years ago)
Launch vehicle
Unknown
Launch site
Taiyaun Space Center, China (TSC)
Object type
Payload
Rocket body
Debris
Shape & HBR
Unknown shape, 0.1 m
Radar Cross Section
Small (<0.1 m²)

Expand to show TLE details & history
Last TLE update: 16 hours ago

TLE from 16 hours ago
0 CZ-6A DEB
1 61278U 24140SP  26171.29985705  .00001368  00000-0  53178-3 0  9992
2 61278  89.0137 274.3405 0016690 129.1539 231.1143 14.29264076 94471
Epoch: 2026-06-20T07:11Z
TLE epoch observation values (Epoch: 2026-06-20T07:11:47.649Z)
Latitude
0.00006°
Longitude
-102.1245°
Altitude
804.787 km
Speed
7.447 km/s
True Right ascension
18h 17m 21s
True Declination
0° 00' 00"
Sunlit
Object was in full shadow at epoch
Visualization orbit readout
Latitude
Unknown
Longitude
Unknown
Altitude
Unknown
Speed
Unknown
Apparent Right ascension
Unknown
Apparent Declination
Unknown
Sunlit
N/A
Visualization observer readout
Local Sidereal Time
10:18:48
Azimuth
Unknown
Elevation
Unknown
Doppler factor
Unknown
Orbital elements
Apogee altitude
803.095 km
Perigee altitude
779.164 km
Semi-major axis
7,169.267 km
Eccentricity
0.00167
Inclination
89.0137°
RAAN
274.3405°
Arg. of periapsis
129.1539°
True anomaly
230.96562°
Mean anomaly
231.1143°
Eccentric anomaly
231.03994°
Mean motion
3.57545 °/min
Orbital period
100.69 mins
BSTAR
0.00053178
Loading maneuver chart data...
Computing Atmospheric mass density...
Loading historical data...
Loading historical data...
Loading historical data...
Loading historical data...
Loading historical data...
Loading historical data...
Loading historical data...

Documentation

Showing up to 5 results
|